ONEWEB-0536, 54148

Orbit data source: Space-Track

ONEWEB-0536, 54148 is a payload satellite owned by One Web (NAA) (UK) in LEO that was launched on Sat, 22 Oct 2022 UTC via a LVM3 launch vehicle from the Sirharikota (SRI). Payload-class satellites include a variety of spacecraft equipped with specific instruments for various scientific and technological missions. These include communications satellites like Starlink; space stations such as the ISS; scientific satellites like the Hubble; Earth observation satellites from companies like Planet Labs, Umbra, and HawkEye 360; GPS; miniature CubeSats for education and research; and military/defense satellites.

Loading next visibility...
Identifier
54148, 2022-138AM
Orbit
LEO
Country
Flag of UKUK
Related business
Manufacturer
One Web
Mission
Operational Commercial Communications
Bus & Motor
ARROW, Unknown motor
Mass
148 kg wet, ~140 kg dry
Launch date (UTC)
2022-10-22 (4 years ago)
Launch vehicle
LVM3
Launch site
Sirharikota (SRI)
Object type
Payload
Rocket body
Debris
Shape & HBR
Trap Box + 2 Pan, 6.7 m
Radar Cross Section
3.464 m², Large (>1 m²)

Expand to show TLE details & history
Last TLE update: 2 days ago

TLE from 2 days ago
0 ONEWEB-0536
1 54148U 22138AM  26171.32558690  .00000069  00000-0  13836-3 0  9992
2 54148  87.9185 273.8317 0003005 104.0560 256.0908 13.20771304179710
Epoch: 2026-06-20T07:48Z
TLE epoch observation values (Epoch: 2026-06-20T07:48:50.708Z)
Latitude
0.00005°
Longitude
-111.92141°
Altitude
1,185.225 km
Speed
7.261 km/s
True Right ascension
18h 15m 19s
True Declination
0° 00' 00"
Sunlit
Object was in full shadow at epoch
Visualization orbit readout
Latitude
Unknown
Longitude
Unknown
Altitude
Unknown
Speed
Unknown
Apparent Right ascension
Unknown
Apparent Declination
Unknown
Sunlit
N/A
Visualization observer readout
Local Sidereal Time
21:28:52
Azimuth
Unknown
Elevation
Unknown
Doppler factor
Unknown
Orbital elements
Apogee altitude
1,181.15 km
Perigee altitude
1,176.609 km
Semi-major axis
7,557.016 km
Eccentricity
0.0003
Inclination
87.9185°
RAAN
273.8317°
Arg. of periapsis
104.056°
True anomaly
256.05738°
Mean anomaly
256.0908°
Eccentric anomaly
256.07409°
Mean motion
3.30383 °/min
Orbital period
108.96 mins
BSTAR
0.00013836
Loading maneuver chart data...
Computing Atmospheric mass density...
Loading historical data...
Loading historical data...
Loading historical data...
Loading historical data...
Loading historical data...
Loading historical data...
Loading historical data...

Documentation

Showing up to 5 results
|